STARLINK-6129, 57116

Orbit data source: Space-Track

STARLINK-6129, 57116 is a payload satellite owned by SpaceX/Seattle (US) in LEO that was launched on Fri, 23 Jun 2023 UTC via an FALCON 9 launch vehicle from the Air Force Eastern Test Range (AFETR). Payload-class satellites include a variety of spacecraft equipped with specific instruments for various scientific and technological missions. These include communications satellites like Starlink; space stations such as the ISS; scientific satellites like the Hubble; Earth observation satellites from companies like Planet Labs, Umbra, and HawkEye 360; GPS; miniature CubeSats for education and research; and military/defense satellites.

Loading next visibility...
Identifier
57116, 2023-090R
Orbit
LEO
Country
Flag of USUS
Related business
Manufacturer
SpaceX/Seattle
Mission
Operational Commercial Communications
Bus & Motor
STARLINK, Unknown motor
Mass
305 kg wet, ~290 kg dry
Launch date (UTC)
2023-06-23 (3 years ago)
Launch vehicle
FALCON 9
Launch site
Air Force Eastern Test Range (AFETR)
Object type
Payload
Rocket body
Debris
Shape & HBR
Box + 1 Pan, 10.1 m
Radar Cross Section
11.087 m², Large (>1 m²)

Expand to show TLE details & history
Last TLE update: 2 days ago

TLE from 2 days ago
0 STARLINK-6129
1 57116U 23090R   26171.39524144 -.00001332  00000-0 -38908-4 0  9996
2 57116  43.0049  61.2108 0001478 256.9811 103.0876 15.27570161166049
Epoch: 2026-06-20T09:29Z
TLE epoch observation values (Epoch: 2026-06-20T09:29:08.860Z)
Latitude
Longitude
10.31341°
Altitude
483.084 km
Speed
7.626 km/s
True Right ascension
04h 04m 50s
True Declination
0° 00' 00"
Sunlit
Object was in daylight at epoch
Visualization orbit readout
Latitude
Unknown
Longitude
Unknown
Altitude
Unknown
Speed
Unknown
Apparent Right ascension
Unknown
Apparent Declination
Unknown
Sunlit
N/A
Visualization observer readout
Local Sidereal Time
00:34:40
Azimuth
Unknown
Elevation
Unknown
Doppler factor
Unknown
Orbital elements
Apogee altitude
486.037 km
Perigee altitude
484.009 km
Semi-major axis
6,863.16 km
Eccentricity
0.00015
Inclination
43.0049°
RAAN
61.2108°
Arg. of periapsis
256.9811°
True anomaly
103.1041°
Mean anomaly
103.0876°
Eccentric anomaly
103.09585°
Mean motion
3.81731 °/min
Orbital period
94.31 mins
BSTAR
-0.000038908
Loading maneuver chart data...
Computing Atmospheric mass density...
Loading historical data...
Loading historical data...
Loading historical data...
Loading historical data...
Loading historical data...
Loading historical data...
Loading historical data...

Documentation

Showing up to 5 results
|